Location: Unspecified
(11.2514°N, 0.0000°E)
Time: 10:13:57
(UTC+00:00)

Vanguard 3 - Visible Passes

Search period start: 04 April 2026 00:00
Search period end: 14 April 2026 00:00
Orbit: 508 x 3205 km, 33.3° (Epoch: 28 March)

Date Brightness Start Highest point End Pass type
(mag) Time Alt. Az. Time Alt. Az. Time Alt. Az.
4 Apr 9.9 04:29:17 10° NNW 04:32:49 14° NNE 04:37:14 10° NE visible
5 Apr 10.0 05:18:21 10° NNW 05:23:58 19° NNE 05:31:52 10° ENE visible
6 Apr 9.9 03:58:55 10° N 04:00:30 11° NNE 04:02:16 10° NNE visible
7 Apr 10.0 04:46:57 10° NNW 04:51:29 17° NNE 04:57:30 10° ENE visible
9 Apr 9.9 04:15:47 10° N 04:19:05 14° NNE 04:23:12 10° NE visible
9 Apr 9.7 20:14:36 10° SSW 20:16:02 13° S 20:16:02 13° S visible
10 Apr 9.8 05:03:39 10° NNW 05:09:24 25° NNE 05:18:05 10° E visible
10 Apr 9.6 18:54:25 10° S 18:56:26 11° SSE 18:58:14 10° SE visible
10 Apr 10.1 21:03:12 10° SW 21:03:18 10° SW 21:03:18 10° SW visible
11 Apr 9.9 03:45:04 10° N 03:46:47 11° NNE 03:48:42 10° NE visible
11 Apr 8.9 19:40:43 10° SSW 19:46:40 23° SSE 19:46:40 23° SSE visible
12 Apr 9.7 04:32:04 10° NNW 04:36:56 22° NNE 04:44:02 10° E visible
12 Apr 9.0 20:29:49 10° SW 20:34:02 29° SSW 20:34:02 29° SSW visible
13 Apr 9.4 05:20:17 10° NW 05:26:37 44° NE 05:37:30 10° ESE visible
13 Apr 8.6 19:06:40 10° SSW 19:14:56 29° SSE 19:17:29 23° ESE visible
13 Apr 9.9 21:20:14 10° WSW 21:21:27 15° WSW 21:21:27 15° WSW visible
